When you browse on this site, cookies collect data to enhance your experience and personalize the content and advertising you see.
Visit our Privacy Policy to learn more. By continuing to use the site, you agree to this use of cookies and data.
  • In Hungary
  • List of Countries
  • For 7 days
  • Water Temperature
  • Satellite Maps
  • Weather Map
  • News
  • Weather Widgets
  • user-avatar
    Login

    Hourly Weather Mielec

    Today, 26 June, Wednesday

    Time Temperature Precipitation Wind Pressure Humidity
    00:00 +21°C° 0 mm 2 mps 754 mmHg 95%
    01:00 +21°C° 0 mm 2 mps 754 mmHg 95%
    02:00 +21°C° 0 mm 2 mps 754 mmHg 95%
    03:00 +22°C° 0 mm 1 mps 753 mmHg 95%
    04:00 +21°C° 0 mm 1 mps 753 mmHg 94%
    05:00 +23°C° 0 mm 1 mps 753 mmHg 89%
    06:00 +25°C° 0 mm 1 mps 753 mmHg 83%
    07:00 +27°C° 0 mm 2 mps 753 mmHg 77%
    08:00 +28°C° 0 mm 2 mps 753 mmHg 72%
    09:00 +30°C° 0 mm 2 mps 753 mmHg 68%
    10:00 +31°C° 0 mm 2 mps 753 mmHg 63%
    11:00 +32°C° 0 mm 2 mps 753 mmHg 58%
    12:00 +34°C° 0 mm 2 mps 752 mmHg 54%
    13:00 +35°C° 0 mm 3 mps 752 mmHg 49%
    14:00 +35°C° 0 mm 3 mps 752 mmHg 49%
    15:00 +35°C° 0 mm 3 mps 751 mmHg 49%
    16:00 +35°C° 0 mm 3 mps 750 mmHg 49%
    17:00 +33°C° 0 mm 3 mps 750 mmHg 56%
    18:00 +31°C° 0 mm 2 mps 750 mmHg 62%
    19:00 +29°C° 0 mm 2 mps 750 mmHg 69%
    20:00 +28°C° 0 mm 3 mps 749 mmHg 71%
    21:00 +27°C° 0 mm 3 mps 749 mmHg 72%
    22:00 +26°C° 0 mm 3 mps 749 mmHg 74%
    23:00 +26°C° 0 mm 4 mps 749 mmHg 76%

    Tomorrow, 27 June, Thursday

    Time Temperature Precipitation Wind Pressure Humidity
    00:00 +26°C° 0 mm 4 mps 749 mmHg 77%
    01:00 +25°C° 0 mm 5 mps 748 mmHg 78%
    02:00 +25°C° 1.4 mm 5 mps 748 mmHg 83%
    03:00 +23°C° 1.4 mm 5 mps 748 mmHg 88%
    04:00 +22°C° 1.4 mm 5 mps 747 mmHg 93%
    05:00 +23°C° 0.5 mm 5 mps 747 mmHg 90%
    06:00 +25°C° 0.5 mm 5 mps 747 mmHg 88%
    07:00 +24°C° 0.5 mm 6 mps 747 mmHg 85%
    08:00 +24°C° 0.1 mm 6 mps 747 mmHg 80%
    09:00 +26°C° 0.1 mm 7 mps 747 mmHg 75%
    10:00 +26°C° 0.1 mm 7 mps 747 mmHg 69%
    11:00 +26°C° 0 mm 7 mps 747 mmHg 62%
    12:00 +26°C° 0 mm 8 mps 747 mmHg 55%
    13:00 +27°C° 0 mm 8 mps 747 mmHg 48%
    14:00 +26°C° 0 mm 7 mps 747 mmHg 49%
    15:00 +26°C° 0 mm 7 mps 747 mmHg 49%
    16:00 +24°C° 0 mm 7 mps 746 mmHg 50%
    17:00 +23°C° 0 mm 6 mps 746 mmHg 56%
    18:00 +21°C° 0 mm 5 mps 746 mmHg 62%
    19:00 +20°C° 0 mm 4 mps 746 mmHg 69%
    20:00 +19°C° 0 mm 4 mps 747 mmHg 72%
    21:00 +18°C° 0 mm 4 mps 747 mmHg 75%
    22:00 +17°C° 0 mm 4 mps 748 mmHg 78%
    23:00 +17°C° 0 mm 4 mps 748 mmHg 82%

    Day after tomorrow, 28 June, Friday

    Time Temperature Precipitation Wind Pressure Humidity
    00:00 +15°C° 0 mm 4 mps 748 mmHg 86%
    01:00 +15°C° 0 mm 4 mps 748 mmHg 90%
    02:00 +14°C° 0 mm 4 mps 748 mmHg 90%
    03:00 +13°C° 0 mm 4 mps 748 mmHg 91%
    04:00 +13°C° 0 mm 4 mps 749 mmHg 91%
    05:00 +14°C° 0 mm 4 mps 749 mmHg 83%
    06:00 +15°C° 0 mm 4 mps 749 mmHg 75%
    07:00 +17°C° 0 mm 4 mps 749 mmHg 67%
    08:00 +18°C° 0 mm 4 mps 749 mmHg 62%
    09:00 +19°C° 0 mm 5 mps 749 mmHg 57%
    10:00 +20°C° 0 mm 5 mps 749 mmHg 51%
    11:00 +21°C° 0 mm 5 mps 749 mmHg 52%
    12:00 +21°C° 0 mm 5 mps 749 mmHg 52%
    13:00 +21°C° 0 mm 5 mps 749 mmHg 52%
    14:00 +21°C° 0 mm 5 mps 749 mmHg 53%
    15:00 +22°C° 0 mm 5 mps 748 mmHg 54%
    16:00 +22°C° 0 mm 5 mps 748 mmHg 54%
    17:00 +21°C° 0.1 mm 4 mps 748 mmHg 60%
    18:00 +20°C° 0.1 mm 4 mps 748 mmHg 67%
    19:00 +19°C° 0.1 mm 3 mps 748 mmHg 73%
    20:00 +17°C° 0 mm 3 mps 748 mmHg 74%
    21:00 +16°C° 0 mm 3 mps 749 mmHg 75%
    22:00 +13°C° 0 mm 3 mps 749 mmHg 77%
    23:00 +12°C° 0 mm 3 mps 749 mmHg 78%

    29 June, Saturday

    Time Temperature Precipitation Wind Pressure Humidity
    00:00 +12°C° 0 mm 3 mps 749 mmHg 80%
    01:00 +11°C° 0 mm 3 mps 750 mmHg 82%
    02:00 +10°C° 0 mm 3 mps 750 mmHg 83%
    03:00 +10°C° 0 mm 3 mps 750 mmHg 83%
    04:00 +10°C° 0 mm 3 mps 750 mmHg 84%
    05:00 +11°C° 0 mm 3 mps 750 mmHg 77%
    06:00 +13°C° 0 mm 4 mps 750 mmHg 70%
    07:00 +15°C° 0 mm 5 mps 750 mmHg 63%
    08:00 +17°C° 0 mm 5 mps 750 mmHg 58%
    09:00 +19°C° 0 mm 5 mps 751 mmHg 54%
    10:00 +20°C° 0 mm 5 mps 751 mmHg 49%
    11:00 +21°C° 0 mm 5 mps 750 mmHg 48%
    12:00 +22°C° 0 mm 5 mps 750 mmHg 48%
    13:00 +23°C° 0 mm 5 mps 750 mmHg 48%
    14:00 +23°C° 0 mm 4 mps 750 mmHg 50%
    15:00 +23°C° 0 mm 4 mps 750 mmHg 51%
    16:00 +24°C° 0 mm 3 mps 749 mmHg 53%
    17:00 +22°C° 0 mm 3 mps 750 mmHg 57%
    18:00 +21°C° 0 mm 2 mps 750 mmHg 64%
    19:00 +20°C° 0 mm 2 mps 750 mmHg 71%
    20:00 +19°C° 0 mm 2 mps 750 mmHg 74%
    21:00 +19°C° 0 mm 1 mps 750 mmHg 77%
    22:00 +16°C° 0 mm 1 mps 750 mmHg 81%
    23:00 +16°C° 0 mm 2 mps 750 mmHg 81%

    30 June, Sunday

    Time Temperature Precipitation Wind Pressure Humidity
    00:00 +16°C° 0 mm 2 mps 750 mmHg 82%
    01:00 +15°C° 0 mm 2 mps 750 mmHg 82%
    02:00 +15°C° 0 mm 2 mps 750 mmHg 82%
    03:00 +14°C° 0 mm 2 mps 750 mmHg 81%
    04:00 +14°C° 0 mm 2 mps 750 mmHg 81%
    05:00 +16°C° 0 mm 2 mps 750 mmHg 76%
    06:00 +18°C° 0 mm 2 mps 750 mmHg 71%
    07:00 +20°C° 0 mm 3 mps 750 mmHg 66%
    08:00 +22°C° 0 mm 3 mps 750 mmHg 61%
    09:00 +24°C° 0 mm 2 mps 750 mmHg 55%
    10:00 +26°C° 0 mm 2 mps 750 mmHg 49%
    11:00 +27°C° 0 mm 2 mps 750 mmHg 47%
    12:00 +28°C° 0 mm 2 mps 750 mmHg 45%
    13:00 +29°C° 0 mm 2 mps 749 mmHg 42%
    14:00 +29°C° 0 mm 2 mps 749 mmHg 43%
    15:00 +29°C° 0 mm 2 mps 749 mmHg 44%
    16:00 +29°C° 0 mm 2 mps 749 mmHg 44%
    17:00 +27°C° 0 mm 2 mps 749 mmHg 52%
    18:00 +26°C° 0 mm 2 mps 748 mmHg 59%
    19:00 +24°C° 0 mm 3 mps 748 mmHg 67%
    20:00 +22°C° 0 mm 3 mps 748 mmHg 71%
    21:00 +21°C° 0 mm 3 mps 748 mmHg 75%
    22:00 +20°C° 0 mm 3 mps 748 mmHg 80%
    23:00 +19°C° 0 mm 3 mps 748 mmHg 83%

    1 July, Monday

    Time Temperature Precipitation Wind Pressure Humidity
    00:00 +19°C° 0 mm 3 mps 748 mmHg 85%
    01:00 +18°C° 0 mm 2 mps 748 mmHg 88%
    02:00 +18°C° 0 mm 2 mps 747 mmHg 89%
    03:00 +18°C° 0 mm 2 mps 747 mmHg 90%
    04:00 +17°C° 0 mm 2 mps 747 mmHg 92%
    05:00 +19°C° 0 mm 3 mps 747 mmHg 85%
    06:00 +21°C° 0 mm 3 mps 747 mmHg 78%
    07:00 +24°C° 0 mm 3 mps 747 mmHg 72%
    08:00 +25°C° 0 mm 3 mps 747 mmHg 67%
    09:00 +27°C° 0 mm 4 mps 747 mmHg 62%
    10:00 +28°C° 0 mm 4 mps 747 mmHg 57%
    11:00 +29°C° 0 mm 4 mps 746 mmHg 55%
    12:00 +30°C° 0 mm 4 mps 746 mmHg 52%
    13:00 +33°C° 0 mm 3 mps 746 mmHg 50%
    14:00 +33°C° 0 mm 4 mps 745 mmHg 51%
    15:00 +33°C° 0 mm 4 mps 745 mmHg 52%
    16:00 +33°C° 0 mm 4 mps 744 mmHg 52%
    17:00 +30°C° 0.6 mm 4 mps 744 mmHg 61%
    18:00 +28°C° 0.6 mm 4 mps 744 mmHg 69%
    19:00 +26°C° 0.6 mm 4 mps 744 mmHg 78%
    20:00 +25°C° 2.5 mm 4 mps 744 mmHg 83%
    21:00 +22°C° 2.5 mm 4 mps 744 mmHg 88%
    22:00 +21°C° 2.5 mm 3 mps 744 mmHg 93%
    23:00 +20°C° 0.4 mm 3 mps 744 mmHg 94%
    Show more